TimeEST,TemperatureF,Dew PointF,Humidity,Sea Level PressureIn,VisibilityMPH,Wind Direction,Wind SpeedMPH,Gust SpeedMPH,PrecipitationIn,Events,Conditions,WindDirDegrees,DateUTC
12:17 AM,30.2,21.2,69,30.27,10.0,West,3.5,-,N/A,,Clear,270,2012-11-27 05:17:00
12:36 AM,30.2,19.4,64,30.27,10.0,Calm,Calm,-,N/A,,Clear,0,2012-11-27 05:36:00
12:57 AM,30.2,21.2,69,30.26,10.0,West,3.5,-,N/A,,Clear,260,2012-11-27 05:57:00
1:17 AM,28.4,21.2,74,30.27,10.0,Calm,Calm,-,N/A,,Clear,0,2012-11-27 06:17:00
1:36 AM,28.4,21.2,74,30.27,10.0,Calm,Calm,-,N/A,,Clear,0,2012-11-27 06:36:00
1:57 AM,28.4,21.2,74,30.27,10.0,West,3.5,-,N/A,,Clear,270,2012-11-27 06:57:00
2:17 AM,28.4,21.2,74,30.27,10.0,Calm,Calm,-,N/A,,Clear,0,2012-11-27 07:17:00
2:36 AM,28.4,21.2,74,30.28,10.0,Calm,Calm,-,N/A,,Clear,0,2012-11-27 07:36:00
2:57 AM,26.6,21.2,80,30.28,10.0,Calm,Calm,-,N/A,,Clear,0,2012-11-27 07:57:00
3:16 AM,26.6,21.2,80,30.28,10.0,Calm,Calm,-,N/A,,Scattered Clouds,0,2012-11-27 08:16:00
3:37 AM,24.8,21.2,86,30.28,10.0,Calm,Calm,-,N/A,,Scattered Clouds,0,2012-11-27 08:37:00
3:57 AM,23.0,19.4,86,30.28,10.0,Calm,Calm,-,N/A,,Clear,0,2012-11-27 08:57:00
4:16 AM,23.0,19.4,86,30.28,10.0,Calm,Calm,-,N/A,,Clear,0,2012-11-27 09:16:00
4:37 AM,21.2,19.4,93,30.27,10.0,Calm,Calm,-,N/A,,Clear,0,2012-11-27 09:37:00
4:57 AM,23.0,21.2,93,30.28,10.0,Calm,Calm,-,N/A,,Clear,0,2012-11-27 09:57:00
5:17 AM,23.0,21.2,93,30.28,10.0,Calm,Calm,-,N/A,,Clear,0,2012-11-27 10:17:00
5:37 AM,23.0,21.2,93,30.29,10.0,WNW,3.5,-,N/A,,Clear,290,2012-11-27 10:37:00
5:56 AM,21.2,19.4,93,30.29,10.0,Calm,Calm,-,N/A,,Clear,0,2012-11-27 10:56:00
6:17 AM,19.4,17.6,93,30.29,10.0,Calm,Calm,-,N/A,,Clear,0,2012-11-27 11:17:00
6:36 AM,21.2,19.4,93,30.29,10.0,Calm,Calm,-,N/A,,Clear,0,2012-11-27 11:36:00
6:57 AM,19.4,17.6,93,30.29,10.0,Calm,Calm,-,N/A,,Clear,0,2012-11-27 11:57:00
7:17 AM,19.4,19.4,100,30.30,10.0,Calm,Calm,-,N/A,,Clear,0,2012-11-27 12:17:00
7:36 AM,19.4,17.6,93,30.30,10.0,Calm,Calm,-,N/A,,Clear,0,2012-11-27 12:36:00
7:57 AM,21.2,19.4,93,30.32,10.0,Calm,Calm,-,N/A,,Clear,0,2012-11-27 12:57:00
8:16 AM,21.2,19.4,93,30.32,10.0,Calm,Calm,-,N/A,,Clear,0,2012-11-27 13:16:00
8:37 AM,23.0,21.2,93,30.32,10.0,WNW,3.5,-,N/A,,Clear,290,2012-11-27 13:37:00
8:57 AM,24.8,21.2,86,30.32,10.0,West,4.6,-,N/A,,Clear,280,2012-11-27 13:57:00
9:16 AM,26.6,21.2,80,30.33,10.0,West,4.6,-,N/A,,Clear,280,2012-11-27 14:16:00
9:37 AM,28.4,21.2,74,30.33,10.0,West,3.5,-,N/A,,Clear,270,2012-11-27 14:37:00
9:57 AM,28.4,21.2,74,30.33,10.0,WNW,4.6,-,N/A,,Clear,300,2012-11-27 14:57:00
10:16 AM,30.2,21.2,69,30.33,10.0,WNW,4.6,-,N/A,,Clear,290,2012-11-27 15:16:00
10:37 AM,30.2,21.2,69,30.34,10.0,NW,4.6,-,N/A,,Clear,310,2012-11-27 15:37:00
10:56 AM,32.0,21.2,64,30.34,10.0,Calm,Calm,-,N/A,,Clear,0,2012-11-27 15:56:00
11:17 AM,32.0,21.2,64,30.34,10.0,Calm,Calm,-,N/A,,Clear,0,2012-11-27 16:17:00
11:37 AM,32.0,21.2,64,30.33,10.0,NW,3.5,-,N/A,,Clear,310,2012-11-27 16:37:00
11:56 AM,33.8,21.2,60,30.32,10.0,Calm,Calm,-,N/A,,Clear,0,2012-11-27 16:56:00
12:17 PM,33.8,19.4,56,30.31,10.0,Calm,Calm,-,N/A,,Scattered Clouds,0,2012-11-27 17:17:00
12:36 PM,33.8,19.4,56,30.32,10.0,Calm,Calm,-,N/A,,Scattered Clouds,0,2012-11-27 17:36:00
12:57 PM,35.6,21.2,56,30.31,10.0,Calm,Calm,-,N/A,,Scattered Clouds,0,2012-11-27 17:57:00
1:17 PM,35.6,21.2,56,30.31,10.0,NW,6.9,-,N/A,,Scattered Clouds,320,2012-11-27 18:17:00
1:36 PM,35.6,19.4,52,30.30,10.0,SW,4.6,-,N/A,,Scattered Clouds,230,2012-11-27 18:36:00
1:57 PM,33.8,19.4,56,30.29,10.0,Calm,Calm,-,N/A,,Clear,0,2012-11-27 18:57:00
2:17 PM,35.6,19.4,52,30.28,10.0,West,3.5,-,N/A,,Clear,280,2012-11-27 19:17:00
2:37 PM,35.6,19.4,52,30.27,10.0,NW,4.6,-,N/A,,Clear,310,2012-11-27 19:37:00
2:57 PM,35.6,17.6,48,30.27,10.0,WSW,5.8,-,N/A,,Clear,240,2012-11-27 19:57:00
3:16 PM,35.6,19.4,52,30.27,10.0,West,3.5,-,N/A,,Clear,280,2012-11-27 20:16:00
3:37 PM,35.6,17.6,48,30.27,10.0,WNW,6.9,-,N/A,,Clear,300,2012-11-27 20:37:00
3:57 PM,35.6,17.6,48,30.27,10.0,Calm,Calm,-,N/A,,Clear,0,2012-11-27 20:57:00
4:17 PM,33.8,17.6,52,30.27,10.0,West,3.5,-,N/A,,Clear,260,2012-11-27 21:17:00
4:56 PM,33.8,17.6,52,30.26,10.0,Calm,Calm,-,N/A,,Clear,0,2012-11-27 21:56:00
5:17 PM,30.2,17.6,60,30.26,10.0,Calm,Calm,-,N/A,,Clear,0,2012-11-27 22:17:00
6:17 PM,26.6,17.6,69,30.26,10.0,Calm,Calm,-,N/A,,Clear,0,2012-11-27 23:17:00
6:36 PM,24.8,17.6,74,30.26,10.0,Calm,Calm,-,N/A,,Clear,0,2012-11-27 23:36:00
6:57 PM,23.0,19.4,86,30.26,10.0,Calm,Calm,-,N/A,,Clear,0,2012-11-27 23:57:00
7:17 PM,24.8,21.2,86,30.26,10.0,SSW,3.5,-,N/A,,Clear,200,2012-11-28 00:17:00
7:37 PM,26.6,19.4,74,30.27,10.0,Calm,Calm,-,N/A,,Clear,0,2012-11-28 00:37:00
7:57 PM,26.6,19.4,74,30.26,10.0,Calm,Calm,-,N/A,,Clear,0,2012-11-28 00:57:00
8:16 PM,26.6,19.4,74,30.26,10.0,SSW,3.5,-,N/A,,Clear,200,2012-11-28 01:16:00
8:37 PM,26.6,19.4,74,30.26,10.0,Calm,Calm,-,N/A,,Clear,0,2012-11-28 01:37:00
8:56 PM,26.6,19.4,74,30.25,10.0,SSW,3.5,-,N/A,,Clear,200,2012-11-28 01:56:00
9:17 PM,26.6,21.2,80,30.25,10.0,SSW,4.6,-,N/A,,Clear,200,2012-11-28 02:17:00
9:37 PM,26.6,21.2,80,30.25,10.0,SSW,4.6,-,N/A,,Clear,200,2012-11-28 02:37:00
9:56 PM,26.6,21.2,80,30.25,10.0,South,3.5,-,N/A,,Clear,190,2012-11-28 02:56:00
10:17 PM,26.6,21.2,80,30.24,10.0,South,3.5,-,N/A,,Clear,190,2012-11-28 03:17:00
11:17 PM,24.8,19.4,80,30.24,10.0,SSW,3.5,-,N/A,,Clear,210,2012-11-28 04:17:00
11:36 PM,24.8,19.4,80,30.23,10.0,SSW,4.6,-,N/A,,Clear,210,2012-11-28 04:36:00